Погода Старая Русса

Погода Старая Русса : погода сейчас, прогноз погоды и архив. Всё, что Вы хотите узнать о погоде Старая Русса!

Хотите узнать прогноз погоды Старая Русса? Тогда Вам сюда: Погода Старая Русса

Поиск расширенной информации на нашем сайте:

Другие новости

Новости СМИ2

Главная страница сайта

Новости сайта

03.07.2017

Напоминаем, что на нашем специализированном сайте Метеоцентр.Азия вы можете получить высокодетализированные автоматические прогнозы погоды по пунктам России, СНГ и мира в авиационном формате (включающие направление и скорость ветра, видимость, явления погоды, количество и форму облачности, нижнюю и верхнюю границу облачности).


Погода Старая Русса - сегодня

Время (UTC), дата Ветер
(°,м/с) 
Видим.   Явления Облачность Т
(°С)
Тd
(°С)
f(%) Тe
(°С)
Pmin
(гПа)
dP
(гПа)
Po
(мм)
O2
(г/м3)
Тmin Tmax R s Состояние
почвы
21 14.08.18 070 (В) 20000 м    10/10 2000 м 
[Ac As]
+14.4 +12.5 88 +20  1011.8  -0.8  757  287           
03 15.08.18 090 (В) 10 км    10/10 240 м 
[Frnb|Ns]
+13.6 +12.8 95 +19  1009.1  -2.1  755  287  +13.3       
21 15.08.18 350 (С) 20000 м    10/10 600 м 
[Sc]
+15.1 +14 93 +23  1012.8  1.5  757  286           
09 16.08.18 080 (В) 20000 м    3/3 600 м 
[Cu med, cong]
+19.3 +13.9 71 +27  1019.2  1.3  762  284           
12 16.08.18 060 (СВ) 20000 м    1/1 600 м 
[Cu med, cong]
+21.6 +11.9 54 +25  1020  0.8  763  283           
15 16.08.18 350 (С) 20000 м    1/1 600 м 
[Cu med, cong]
+22.3 +11.7 51 +25  1020.4  0.4  763  282           
21 16.08.18 тихо ()   2000 м  дымка  ясно 
+10.9 +10.4 97 +12  1022.2  0.9  764  294           
00 17.08.18 240 (ЮЗ) 2000 м  дымка  ясно 
+9.2 +8.9 98 +10  1023.4  1.2  765  297           
03 17.08.18 130 (ЮВ) 4000 м  дымка{туман}  1/0 верхняя 
[Ci fib]
+8.5 +8.2 98 +10  1024.2  0.8  766  298  +7.9         
09 17.08.18 170 (Ю) 20000 м    5/3 600 м верхняя 
[Cu hum|Ci sp]
+22.4 +13.1 56 +27  1024  -0.2  766  283           
12 17.08.18 160 (Ю) 20000 м    6/3 600 м верхняя 
[Cu med, cong|Ci fib]
+23.9 +12.7 49 +28  1023.4  -0.6  765  281           
15 17.08.18 140 (ЮВ) 20000 м    6/3 600 м верхняя 
[Cu med, cong|Ci fib]
+23.7 +12.1 48 +27  1022.2  -1.2  764  281           
21 17.08.18 150 (ЮВ) 20000 м    ясно 
+15.5 +13 85 +21  1021.7  0.3  764  289           
00 18.08.18 160 (Ю) 20000 м    ясно 
+13.8 +11.9 88 +17  1022.4  0.6  765  291           
09 18.08.18 170 (Ю) 20000 м    1/1 600 м 
[Cu hum]
+23.5 +14.3 56 +31  1021.2  -0.8  764  280           
12 18.08.18 150 (ЮВ) 20000 м    3/3 600 м 
[Cu med, cong]
+24.1 +13.9 53 +31  1020.4  -0.8  763  280           
15 18.08.18 150 (ЮВ) 20000 м    3/0 средняя, верхняя 
[Ac trans|Ci fib]
+24.7 +13.6 50 +31  1018.9  -1.4  762  279           
21 18.08.18 160 (Ю) 20000 м    9/0 средняя 
[Ac trans]
+19.5 +15.3 77 +30  1018.2  -0.3  761  283           
00 19.08.18 170 (Ю) 20000 м    9/0 средняя 
[Ac trans]
+18.1 +15.7 86 +30  1017.6  -0.6  761  284           
03 19.08.18 150 (ЮВ) 10 км  слаб. ливневой дождь  10/3 600 м кучево-дожд., средняя 
[Cb cap|Ac und]
+17.4 +15.2 87 +27  1016.4  -1.2  760  285  +17.3    0.0     
09 19.08.18 190 (Ю) 20000 м    4/1 600 м кучево-дожд., средняя 
[Cb cap|Ac trans]
+23.4 +17.6 70 +37  1014.3  -1.3  759  278           
15 19.08.18 260 (З) 20000 м    10/10 2000 м 
[Ac As]
+20.7 +13.5 63 +27  1014.1  0.5  758  281         
21 19.08.18 320 (СЗ) 20000 м    9/9 2000 м средняя 
[Ac trans]
+16.7 +13.8 83 +24  1014  -0.2  758  285           
00 20.08.18 230 (ЮЗ) 20000 м    9/9 2000 м средняя 
[Ac trans]
+16.1 +14.5 90 +25  1013.8  -0.2  758  285           
21 20.08.18 180 (Ю) 20000 м  в посл. час ливневой дождь  10/3 600 м кучево-дожд., средняя 
[Cb cap|Ac und]
+19.7 +15.8 78 +30  1002.2  -4  750  278           
Время (UTC), дата Ветер
(°,м/с) 
Видим.   Явления Облачность Т
(°С)
Тd
(°С)
f(%) Тe
(°С)
Pmin
(гПа)
dP
(гПа)
Po
(мм)
O2
(г/м3)
Тmin Tmax R s Состояние
почвы

Для получения пояснительной информации подведите курсор к названию столбца.

ПОГОДА Старая Русса - архив

Всё, что Вы хотите узнать о погоде Старая Русса - удобно и подробно!

Выберите нужную дату (начиная с 1 января 2015* года) и нажмите кнопку "Найти".
Будут отображены архивные сводки погоды по пункту Старая Русса, начиная с указанной даты.


Отображать данные в формате CSV (для использования в таблицах Excel)


Внимание! Наш архив погоды предназначен исключительно для личного некоммерческого использования в познавательных целях. Если Вам необходимы официальные справки о состоянии погоды (для производственных, юридических, коммерческих и т.п. целей), обращайтесь в органы Росгидромета.

*Примечание: данная дата относится к архиву по метеостанциям СССР (Россия, СНГ, Балтия).
Архив по метеостанциям Зарубежной Европы и Азии (кроме Китая) хранится 10 дней, по другим регионам земного шара (Китай, Африка, Америка, Австралия, Океания) - 1 день.

Старая Русса - район местоположения метеостанции


Название, широта, долгота, высота метеостанции:
Старая Русса 58°ш. 31.3°д. 25 м над ур. моря [Российская Федерация]

Дополнительная информация

В oтличие oт бoльшинства пoгoдных сайтoв мы публикуем пoдрoбную метеoинфoрмацию в детальнoм прoфессиoнальнoм фoрмате.

Характеристики температуры и влажнoсти вoздуха измеряются на высoте 2 м в тени вдали oт зданий и деревьев.
Скoрoсть ветра измеряется на высoте 10 м (на урoвне рoста челoвека скoрoсть ветра ниже в 1.5-2 раза). Если метеoстанция нахoдится в гoрoде или в лесу, тo скoрoсть ветра занижена на 2-4 м/с пo сравнению с oткрытым местoм. Скoрoсть ветра над акватoриями крупных рек и oзёр, а также на вершинах хoлмoв на 2-5 м/с выше, чем в oбычных услoвиях.
Атмoсфернoе давление в разных тoчках местнoсти мoжет значительнo oтличаться oт давления на метеoстанции, в зависимoсти oт услoвий рельефа (при пoдъёме на 10 м давление пoнижается примернo на 1 мм рт.ст.).